Location: Hartford
(41.7640°N, 72.6860°W)
Time: 16:20:58
(UTC-05:00)

Amateur Radio Satellites - All Passes

Search period start: 20 November 2017 15:50
Search period end: 21 November 2017 15:50
Location: Hartford, 41.7640°N, 72.6860°W

Satellite Date Start Highest point End Downlink Frequencies (MHz)
Time Altitude Azimuth
AO-7 20 Nov 16:08:14 16:14:12 22° 268° (W) 16:20:13 .
BEESAT 20 Nov 16:09:26 16:13:44 35° 291° (WNW) 16:18:02 436.000
XW-2C 20 Nov 16:09:38 16:12:03 17° 67° (ENE) 16:14:28 145.795 - 145.815
LilacSat-2 20 Nov 16:10:22 16:12:59 18° 67° (ENE) 16:15:37 437.200
ITUPSAT 1 20 Nov 16:18:43 16:22:49 30° 293° (WNW) 16:26:55 437.325
XW-2F 20 Nov 16:20:40 16:23:27 20° 68° (ENE) 16:26:16 145.980 - 146.000
DOVE 4 20 Nov 16:27:02 16:31:57 58° 261° (W) 16:37:07 437.250
RS-15 20 Nov 16:28:13 16:35:20 18° 96° (E) 16:42:26 29.354- 29.394
MOZHAYETS 4 20 Nov 16:40:26 16:42:37 13° 298° (WNW) 16:44:46
CUBESAT XI-V 20 Nov 16:48:00 16:52:24 41° 289° (WNW) 16:56:48 437.345
KAITUO 1B 20 Nov 16:49:18 16:52:38 34° 72° (ENE) 16:56:00 145.475/437.950
CUTE-I 20 Nov 16:55:17 17:00:29 55° 71° (ENE) 17:05:44 437.470
KKS-1 20 Nov 16:59:15 17:03:41 59° 101° (E) 17:08:04 437.445
HO-68 20 Nov 16:59:22 17:05:43 35° 62° (ENE) 17:12:04 435.675
XW-2D 20 Nov 17:01:48 17:05:31 75° 76° (ENE) 17:09:15 145.860 - 145.880
XW-2B 20 Nov 17:16:37 17:20:19 74° 258° (WSW) 17:24:04 145.730 - 145.750
YUBILEINY 20 Nov 17:21:15 17:29:49 57° 270° (W) 17:38:21 435.215
STARS 20 Nov 17:25:47 17:30:00 45° 99° (E) 17:34:11 437.465
NO-84 20 Nov 17:28:49 17:31:25 17° 345° (NNW) 17:34:07 435.350 FM
CUTE 1.7 + AOD 2 20 Nov 17:29:40 17:33:26 34° 71° (ENE) 17:37:15 437.475
NUDT-PHONESAT 20 Nov 17:34:59 17:38:35 62° 259° (W) 17:42:13 437.300
UWE-3 20 Nov 17:41:31 17:44:21 17° 65° (ENE) 17:47:08 435.000/436.395/437.385
XW-2C 20 Nov 17:42:35 17:45:58 33° 263° (W) 17:49:23 145.795 - 145.815
LilacSat-2 20 Nov 17:43:42 17:47:02 30° 263° (W) 17:50:24 437.200
XW-2F 20 Nov 17:54:17 17:57:25 26° 264° (W) 18:00:35 145.980 - 146.000
SEEDS 20 Nov 18:01:21 18:05:19 46° 73° (ENE) 18:09:20 437.485
AAUSAT CUBESAT 2 20 Nov 18:10:59 18:14:23 26° 69° (ENE) 18:17:49 437.432
CUBEBUG 2 20 Nov 18:17:29 18:22:03 70° 76° (ENE) 18:26:31 437.445
AO-73 20 Nov 18:24:27 18:27:43 21° 68° (ENE) 18:30:57 145.935
KAITUO 1B 20 Nov 18:24:33 18:26:44 15° 268° (W) 18:28:54 145.475/437.950
RS-15 20 Nov 18:33:26 18:45:39 74° 117° (ESE) 18:57:51 29.354- 29.394
CUTE-I 20 Nov 18:37:02 18:40:51 20° 268° (W) 18:44:41 437.470
KKS-1 20 Nov 18:37:19 18:39:43 15° 298° (WNW) 18:42:08 437.445
Oscar 11 20 Nov 18:41:35 18:44:55 22° 67° (ENE) 18:48:15 .
HO-68 20 Nov 18:46:19 18:53:12 48° 260° (W) 19:00:08 435.675
STRAND 1 20 Nov 19:02:33 19:07:32 49° 100° (E) 19:12:27 437.568
STARS 20 Nov 19:03:02 19:05:59 18° 296° (WNW) 19:08:55 437.465
CUTE 1.7 + AOD 2 20 Nov 19:06:14 19:09:20 20° 267° (W) 19:12:28 437.475
ZACube-1 20 Nov 19:07:52 19:12:12 73° 76° (ENE) 19:16:27 437.345
NO-84 20 Nov 19:08:04 19:10:11 13° 6° (N) 19:12:21 435.350 FM
XW-2A 20 Nov 19:08:07 19:11:20 48° 260° (W) 19:14:34 145.665 - 145.685
UWE-3 20 Nov 19:16:07 19:20:26 47° 261° (W) 19:24:41 435.000/436.395/437.385
FO-29 20 Nov 19:36:35 19:43:36 35° 93° (E) 19:50:13 435.910
SEEDS 20 Nov 19:38:55 19:41:14 15° 269° (W) 19:43:35 437.485
AAUSAT CUBESAT 2 20 Nov 19:46:18 19:49:45 26° 265° (W) 19:53:14 437.432
nSIGHT-1 20 Nov 19:54:07 19:56:30 20° 134° (SE) 19:58:55 .
CUBEBUG 2 20 Nov 19:57:36 19:59:04 11° 270° (W) 20:00:32 437.445
AO-73 20 Nov 19:59:50 20:03:45 33° 263° (W) 20:07:37 145.935
Max Valier Satellite 20 Nov 20:02:27 20:05:15 21° 69° (ENE) 20:08:04 145.860
EO-88 20 Nov 20:02:58 20:05:09 15° 66° (ENE) 20:07:18 145.990 - 145.960
Oscar 11 20 Nov 20:17:00 20:20:51 32° 263° (W) 20:24:45 .
DELFI C3 20 Nov 20:22:00 20:25:52 57° 75° (ENE) 20:29:48 145.870
SO-50 20 Nov 20:31:49 20:34:27 16° 109° (ESE) 20:37:06 436.795
ISS 20 Nov 20:35:20 20:38:25 40° 139° (SE) 20:41:31 437.550
STRAND 1 20 Nov 20:42:33 20:46:20 21° 297° (WNW) 20:50:08 437.568
NO-84 20 Nov 20:45:07 20:48:44 26° 27° (NNE) 20:52:22 435.350 FM
UNISAT 6 20 Nov 20:47:33 20:50:36 19° 93° (E) 20:53:36 437.425
RS-15 20 Nov 20:47:47 20:59:13 41° 322° (NW) 21:10:32 29.354- 29.394
TIGRISAT 20 Nov 20:52:03 20:55:07 19° 93° (E) 20:58:09 435.000
FO-29 20 Nov 21:21:13 21:28:47 53° 292° (WNW) 21:35:58 435.910
ESTCUBE 1 20 Nov 21:24:35 21:27:36 18° 64° (ENE) 21:30:38 437.505/2401.250
nSIGHT-1 20 Nov 21:29:23 21:32:32 48° 330° (NNW) 21:35:40 .
EO-88 20 Nov 21:35:11 21:38:29 34° 262° (W) 21:41:49 145.990 - 145.960
Max Valier Satellite 20 Nov 21:35:56 21:38:57 24° 265° (W) 21:41:57 145.860
PRISM 20 Nov 21:56:43 22:00:35 36° 98° (E) 22:04:24 437.425
DELFI C3 20 Nov 21:59:58 22:00:57 11° 270° (W) 22:01:58 145.870
LO-87 20 Nov 22:00:56 22:04:28 53° 74° (ENE) 22:08:00 145.935 - 145.965
SO-50 20 Nov 22:10:01 22:14:24 58° 306° (NW) 22:18:52 436.795
ISS 20 Nov 22:12:01 22:14:58 29° 336° (NNW) 22:17:54 437.550
NO-84 20 Nov 22:22:10 22:26:25 67° 225° (SW) 22:30:37 435.350 FM
UNISAT 6 20 Nov 22:23:30 22:27:26 37° 289° (WNW) 22:31:20 437.425
TIGRISAT 20 Nov 22:28:01 22:31:56 36° 289° (WNW) 22:35:48 435.000
O/OREOS (USA 219) 20 Nov 22:28:57 22:33:13 38° 61° (ENE) 22:37:25 437.305
AIST 2D 20 Nov 22:34:53 22:38:01 29° 97° (E) 22:41:08 435.315
PCSat 20 Nov 22:35:28 22:37:03 11° 102° (ESE) 22:38:38 145.827
SPROUT 20 Nov 22:47:41 22:51:27 31° 70° (ENE) 22:55:15 437.525
QB50P2 20 Nov 22:56:12 22:59:21 20° 94° (E) 23:02:28 145.880/145.840
ESTCUBE 1 20 Nov 22:59:45 23:04:02 46° 261° (W) 23:08:22 437.505/2401.250
RS-15 20 Nov 23:07:06 23:16:19 23° 356° (N) 23:25:19 29.354- 29.394
nSIGHT-1 20 Nov 23:07:12 23:09:20 16° 349° (N) 23:11:28 .
FO-29 20 Nov 23:09:35 23:11:59 12° 312° (NW) 23:14:22 435.910
VELOX 1 20 Nov 23:22:10 23:26:25 49° 72° (ENE) 23:30:44 145.980
PRISM 20 Nov 23:32:35 23:35:35 20° 294° (WNW) 23:38:35 437.425
DUCHIFAT 1 20 Nov 23:45:54 23:49:57 50° 100° (E) 23:53:59 145.980
ISS 20 Nov 23:50:15 23:52:13 15° 356° (N) 23:54:10 437.550
EO-79 20 Nov 23:52:34 23:56:47 80° 103° (ESE) 00:00:57 145.935-145.965
SO-50 20 Nov 23:54:46 23:55:51 11° 327° (NNW) 23:56:56 436.795
NANOSAT C BR1 20 Nov 23:56:07 00:00:19 77° 103° (ESE) 00:04:29 145.865
50 SAT 20 Nov 23:57:19 23:59:55 23° 70° (ENE) 00:02:32 437.505
POLYITAN 1 21 Nov 00:07:48 00:11:59 69° 285° (WNW) 00:16:07 437.675
AIST 2D 21 Nov 00:08:39 00:10:56 17° 292° (WNW) 00:13:14 435.315
O/OREOS (USA 219) 21 Nov 00:08:56 00:12:21 21° 259° (WSW) 00:15:44 437.305
DX 1 21 Nov 00:09:18 00:13:18 36° 70° (ENE) 00:17:20 434.975-435.025
Oscar 19 21 Nov 00:12:20 00:15:09 15° 90° (E) 00:17:58 437.125/150
PCSat 21 Nov 00:14:09 00:19:35 87° 116° (ESE) 00:25:02 145.827
SPROUT 21 Nov 00:23:57 00:27:21 23° 266° (W) 00:30:47 437.525
QB50P2 21 Nov 00:31:24 00:35:12 33° 290° (WNW) 00:38:58 145.880/145.840
Gurwin Techsat 1B 21 Nov 00:33:45 00:37:12 17° 91° (E) 00:40:38 435.225
BUGSAT 1 21 Nov 00:40:13 00:44:08 47° 99° (E) 00:48:00 437.445
nSIGHT-1 21 Nov 00:44:27 00:46:30 16° 9° (N) 00:48:34 .
UKube-1 21 Nov 00:51:56 00:56:12 66° 73° (ENE) 01:00:31 .
VELOX 1 21 Nov 01:00:26 01:03:07 16° 268° (W) 01:05:50 145.980
DUCHIFAT 1 21 Nov 01:22:52 01:25:11 15° 296° (WNW) 01:27:29 145.980
RS-15 21 Nov 01:23:17 01:33:56 34° 31° (NNE) 01:44:04 29.354- 29.394
ISS 21 Nov 01:27:06 01:29:37 20° 16° (NNE) 01:32:07 437.550
50 SAT 21 Nov 01:29:46 01:31:58 17° 265° (W) 01:34:11 437.505
BEESAT 3 21 Nov 01:33:02 01:35:38 17° 111° (ESE) 01:38:14 437.485
NANOSAT C BR1 21 Nov 01:35:06 01:35:22 10° 299° (WNW) 01:35:39 145.865
BEESAT 21 Nov 01:38:29 01:42:37 30° 67° (ENE) 01:46:46 436.000
DX 1 21 Nov 01:46:18 01:49:35 20° 266° (W) 01:52:52 434.975-435.025
ITUPSAT 1 21 Nov 01:47:40 01:52:02 36° 69° (ENE) 01:56:24 437.325
Oscar 19 21 Nov 01:49:48 01:54:56 68° 287° (WNW) 02:00:03 437.125/150
M-CUBED/EXP-1 PRIME 21 Nov 01:56:01 01:59:41 23° 100° (E) 02:03:22 437.505
PCSat 21 Nov 02:00:08 02:03:42 18° 318° (NW) 02:07:18 145.827
MOZHAYETS 4 21 Nov 02:03:12 02:07:44 66° 74° (ENE) 02:12:16
Gurwin Techsat 1B 21 Nov 02:12:17 02:17:32 60° 288° (WNW) 02:22:45 435.225
AO-7 21 Nov 02:14:33 02:21:10 25° 94° (E) 02:27:44 .
CUBESAT XI-V 21 Nov 02:15:07 02:18:32 21° 65° (ENE) 02:21:57 437.345
BUGSAT 1 21 Nov 02:16:54 02:19:04 14° 296° (WNW) 02:21:13 437.445
nSIGHT-1 21 Nov 02:20:17 02:23:21 43° 29° (NNE) 02:26:25 .
UKube-1 21 Nov 02:31:26 02:32:38 11° 270° (W) 02:33:51 .
BEESAT 2 21 Nov 02:42:45 02:46:07 27° 114° (ESE) 02:49:34 435.950
ISS 21 Nov 03:03:12 03:06:29 85° 35° (NE) 03:09:44 437.550
BEESAT 3 21 Nov 03:09:00 03:12:49 44° 308° (NW) 03:16:41 437.485
BEESAT 21 Nov 03:16:12 03:20:20 29° 264° (W) 03:24:29 436.000
ITUPSAT 1 21 Nov 03:26:03 03:29:55 24° 265° (W) 03:33:48 437.325
AO-85 21 Nov 03:27:38 03:31:00 29° 114° (ESE) 03:34:29 145.980
M-CUBED/EXP-1 PRIME 21 Nov 03:29:52 03:34:04 38° 295° (WNW) 03:38:22 437.505
RS-15 21 Nov 03:36:13 03:48:11 89° 56° (NE) 03:59:26 29.354- 29.394
ITAMSAT 1 21 Nov 03:41:31 03:46:45 80° 104° (ESE) 03:51:57 435.822/435.867
MOZHAYETS 4 21 Nov 03:43:30 03:45:18 12° 270° (W) 03:47:07
CUBESAT XI-V 21 Nov 03:51:17 03:55:36 40° 262° (W) 03:59:58 437.345
nSIGHT-1 21 Nov 03:56:52 03:59:25 22° 226° (SW) 04:01:58 .
KKS-1 21 Nov 03:57:06 04:01:29 56° 73° (ENE) 04:05:54 437.445
AO-7 21 Nov 04:06:15 04:14:34 72° 292° (WNW) 04:22:51 .
BEESAT 2 21 Nov 04:20:13 04:23:46 29° 311° (NW) 04:27:22 435.950
STARS 21 Nov 04:22:14 04:26:23 41° 71° (ENE) 04:30:34 437.465
DOVE 4 21 Nov 04:25:50 04:30:45 41° 97° (E) 04:35:25 437.250
YUBILEINY 21 Nov 04:26:24 04:34:07 37° 85° (E) 04:41:53 435.215
ISS 21 Nov 04:41:32 04:42:29 11° 231° (SW) 04:43:26 437.550
XW-2B 21 Nov 04:50:45 04:51:53 11° 90° (E) 04:52:59 145.730 - 145.750
SO-50 21 Nov 05:01:04 05:04:29 20° 42° (NE) 05:07:57 436.795
NUDT-PHONESAT 21 Nov 05:06:25 05:07:43 11° 91° (E) 05:09:00 437.300
AO-85 21 Nov 05:08:02 05:11:21 26° 313° (NW) 05:14:49 145.980
CUTE-I 21 Nov 05:12:46 05:16:47 21° 93° (E) 05:20:46 437.470
XW-2C 21 Nov 05:14:39 05:17:42 22° 95° (E) 05:20:44 145.795 - 145.815
LilacSat-2 21 Nov 05:16:15 05:19:29 25° 96° (E) 05:22:43 437.200
ITAMSAT 1 21 Nov 05:22:51 05:25:31 14° 301° (WNW) 05:28:11 435.822/435.867
XW-2F 21 Nov 05:25:20 05:28:39 27° 96° (E) 05:31:56 145.980 - 146.000
KKS-1 21 Nov 05:36:03 05:38:23 14° 269° (W) 05:40:42 437.445
RS-15 21 Nov 05:50:33 05:58:52 24° 260° (W) 06:06:57 29.354- 29.394
FO-29 21 Nov 05:50:54 05:54:57 17° 53° (NE) 05:59:14 435.910
KAITUO 1B 21 Nov 05:53:15 05:56:55 47° 99° (E) 06:00:34 145.475/437.950
STARS 21 Nov 05:59:48 06:02:53 18° 267° (W) 06:05:59 437.465
AO-7 21 Nov 06:00:56 06:05:54 18° 313° (NW) 06:10:53 .
DOVE 4 21 Nov 06:03:57 06:08:07 25° 295° (WNW) 06:12:07 437.250
XW-2D 21 Nov 06:07:43 06:11:31 75° 283° (WNW) 06:15:19 145.860 - 145.880
CUBEBUG 2 21 Nov 06:09:47 06:11:41 13° 90° (E) 06:13:35 437.445
HO-68 21 Nov 06:13:38 06:20:04 34° 96° (E) 06:26:26 435.675
STRAND 1 21 Nov 06:18:27 06:23:35 72° 74° (ENE) 06:28:43 437.568
YUBILEINY 21 Nov 06:22:13 06:30:37 50° 285° (WNW) 06:39:08 435.215
XW-2B 21 Nov 06:22:37 06:26:19 51° 286° (WNW) 06:30:01 145.730 - 145.750
NUDT-PHONESAT 21 Nov 06:38:13 06:41:48 46° 286° (WNW) 06:45:21 437.300
SO-50 21 Nov 06:40:44 06:45:20 62° 240° (WSW) 06:49:59 436.795
XW-2C 21 Nov 06:48:40 06:51:49 25° 290° (WNW) 06:54:57 145.795 - 145.815
CUTE 1.7 + AOD 2 21 Nov 06:49:10 06:53:27 67° 101° (ESE) 06:57:42 437.475
LilacSat-2 21 Nov 06:50:36 06:53:38 22° 291° (WNW) 06:56:39 437.200
CUTE-I 21 Nov 06:51:55 06:57:06 50° 289° (WNW) 07:02:14 437.470
ZACube-1 21 Nov 06:57:26 06:59:18 13° 91° (E) 07:01:11 437.345
XW-2F 21 Nov 06:59:44 07:02:34 20° 292° (WNW) 07:05:24 145.980 - 146.000
UWE-3 21 Nov 07:05:24 07:09:06 30° 96° (E) 07:12:45 435.000/436.395/437.385
SEEDS 21 Nov 07:19:53 07:24:09 89° 104° (ESE) 07:28:24 437.485
PCSat 21 Nov 07:19:57 07:22:51 14° 38° (NE) 07:25:45 145.827
AAUSAT CUBESAT 2 21 Nov 07:27:03 07:31:06 45° 99° (E) 07:35:06 437.432
KAITUO 1B 21 Nov 07:28:47 07:30:28 13° 295° (WNW) 07:32:08 145.475/437.950
FO-29 21 Nov 07:32:04 07:38:39 79° 74° (ENE) 07:46:07 435.910
CUBEBUG 2 21 Nov 07:44:35 07:48:38 50° 287° (WNW) 07:52:38 437.445
UNISAT 6 21 Nov 07:46:34 07:49:47 19° 66° (ENE) 07:52:59 437.425
AO-73 21 Nov 07:46:50 07:50:45 40° 98° (E) 07:54:41 145.935
TIGRISAT 21 Nov 07:50:54 07:54:09 20° 66° (ENE) 07:57:22 435.000
STRAND 1 21 Nov 08:00:43 08:03:16 14° 270° (W) 08:05:49 437.568
HO-68 21 Nov 08:01:07 08:07:55 47° 294° (WNW) 08:14:41 435.675
XW-2A 21 Nov 08:01:35 08:04:51 48° 285° (WNW) 08:08:06 145.665 - 145.685
Oscar 11 21 Nov 08:03:16 08:07:24 42° 98° (E) 08:11:31 .
CUTE 1.7 + AOD 2 21 Nov 08:27:04 08:28:42 12° 297° (WNW) 08:30:20 437.475
ZACube-1 21 Nov 08:31:52 08:35:53 51° 287° (WNW) 08:39:56 437.345
UWE-3 21 Nov 08:42:12 08:45:23 22° 292° (WNW) 08:48:34 435.000/436.395/437.385
PRISM 21 Nov 08:46:06 08:49:34 27° 68° (ENE) 08:53:04 437.425
PCSat 21 Nov 09:01:47 09:07:13 73° 59° (ENE) 09:12:37 145.827
AAUSAT CUBESAT 2 21 Nov 09:03:34 09:06:10 16° 295° (WNW) 09:08:45 437.432
EO-88 21 Nov 09:03:40 09:06:14 18° 94° (E) 09:08:47 145.990 - 145.960
Max Valier Satellite 21 Nov 09:04:49 09:07:58 27° 96° (E) 09:11:07 145.860
AIST 2D 21 Nov 09:10:54 09:12:11 12° 65° (ENE) 09:13:28 435.315
FO-29 21 Nov 09:20:07 09:24:36 19° 274° (W) 09:29:26 435.910
UNISAT 6 21 Nov 09:21:50 09:26:12 43° 261° (W) 09:30:30 437.425
AO-73 21 Nov 09:23:59 09:26:40 17° 294° (WNW) 09:29:22 145.935
TIGRISAT 21 Nov 09:26:12 09:30:33 42° 261° (W) 09:34:50 435.000
FALCONSAT 3 21 Nov 09:31:51 09:34:25 18° 162° (SSE) 09:37:00 435.103
DELFI C3 21 Nov 09:32:50 09:36:51 89° 293° (WNW) 09:40:50 145.870
Oscar 11 21 Nov 09:40:16 09:43:12 18° 295° (WNW) 09:46:09 .
BEESAT 3 21 Nov 09:48:53 09:51:01 14° 40° (NE) 09:53:08 437.485
QB50P2 21 Nov 09:49:23 09:52:08 17° 65° (ENE) 09:54:52 145.880/145.840
PRISM 21 Nov 10:21:22 10:24:46 25° 264° (W) 10:28:14 437.425
EO-88 21 Nov 10:36:44 10:39:53 28° 289° (WNW) 10:43:03 145.990 - 145.960
DUCHIFAT 1 21 Nov 10:37:33 10:41:26 37° 71° (ENE) 10:45:20 145.980
Max Valier Satellite 21 Nov 10:38:56 10:41:37 19° 292° (WNW) 10:44:17 145.860
AIST 2D 21 Nov 10:41:40 10:44:57 41° 261° (W) 10:48:16 435.315
EO-79 21 Nov 10:44:39 10:48:49 59° 74° (ENE) 10:53:00 145.935-145.965
PCSat 21 Nov 10:46:52 10:49:57 16° 256° (WSW) 10:53:02 145.827
NANOSAT C BR1 21 Nov 10:47:52 10:52:00 57° 74° (ENE) 10:56:09 145.865
ESTCUBE 1 21 Nov 10:51:42 10:55:52 35° 97° (E) 11:00:01 437.505/2401.250
BEESAT 2 21 Nov 10:59:48 11:02:53 20° 45° (NE) 11:05:56 435.950
POLYITAN 1 21 Nov 10:59:55 11:04:10 88° 76° (ENE) 11:08:26 437.675
LO-87 21 Nov 11:00:29 11:04:00 64° 101° (E) 11:07:30 145.935 - 145.965
FALCONSAT 3 21 Nov 11:09:43 11:12:59 30° 177° (S) 11:16:15 435.103
QB50P2 21 Nov 11:23:30 11:27:33 44° 261° (W) 11:31:38 145.880/145.840
BEESAT 3 21 Nov 11:25:05 11:29:02 72° 239° (WSW) 11:32:53 437.485
Oscar 19 21 Nov 11:29:03 11:33:01 23° 64° (ENE) 11:36:59 437.125/150
BUGSAT 1 21 Nov 11:29:44 11:33:33 35° 71° (ENE) 11:37:22 437.445
Gurwin Techsat 1B 21 Nov 11:54:42 11:59:12 29° 66° (ENE) 12:03:46 435.225
AO-85 21 Nov 11:57:05 12:01:21 35° 50° (NE) 12:05:54 145.980
SPROUT 21 Nov 12:08:01 12:12:13 56° 101° (E) 12:16:21 437.525
DUCHIFAT 1 21 Nov 12:14:15 12:17:13 18° 267° (W) 12:20:10 145.980
EO-79 21 Nov 12:23:22 12:24:56 12° 270° (W) 12:26:31 145.935-145.965
NANOSAT C BR1 21 Nov 12:26:18 12:28:03 12° 270° (W) 12:29:47 145.865
ESTCUBE 1 21 Nov 12:28:53 12:32:27 23° 294° (WNW) 12:36:01 437.505/2401.250
BEESAT 2 21 Nov 12:36:58 12:40:47 42° 243° (WSW) 12:44:32 435.950
O/OREOS (USA 219) 21 Nov 12:41:16 12:45:35 42° 106° (ESE) 12:49:55 437.305
UKube-1 21 Nov 12:41:32 12:42:09 10° 90° (E) 12:42:47 .
M-CUBED/EXP-1 PRIME 21 Nov 12:42:14 12:45:08 23° 62° (ENE) 12:48:15 437.505
50 SAT 21 Nov 12:46:12 12:48:29 18° 95° (E) 12:50:45 437.505
VELOX 1 21 Nov 12:47:48 12:52:17 86° 282° (WNW) 12:56:42 145.980
FALCONSAT 3 21 Nov 12:48:34 12:51:37 24° 192° (SSW) 12:54:39 435.103
BUGSAT 1 21 Nov 13:05:55 13:08:59 19° 266° (W) 13:12:02 437.445
Oscar 19 21 Nov 13:07:10 13:12:02 44° 261° (W) 13:16:57 437.125/150
AO-7 21 Nov 13:13:45 13:21:09 38° 59° (ENE) 13:28:34 .
ITAMSAT 1 21 Nov 13:22:39 13:26:00 17° 61° (ENE) 13:29:19 435.822/435.867
DX 1 21 Nov 13:32:39 13:37:02 65° 101° (E) 13:41:22 434.975-435.025
Gurwin Techsat 1B 21 Nov 13:34:08 13:39:01 37° 263° (W) 13:43:56 435.225
AO-85 21 Nov 13:37:30 13:41:44 32° 245° (WSW) 13:46:14 145.980
NO-84 21 Nov 13:38:33 13:40:35 14° 123° (ESE) 13:42:43 435.350 FM
SPROUT 21 Nov 13:45:28 13:47:36 14° 297° (WNW) 13:49:43 437.525
MOZHAYETS 4 21 Nov 13:59:13 14:01:47 15° 91° (E) 14:04:22
UKube-1 21 Nov 14:14:18 14:18:38 70° 285° (WNW) 14:22:55 .
M-CUBED/EXP-1 PRIME 21 Nov 14:16:34 14:19:28 23° 261° (W) 14:22:33 437.505
50 SAT 21 Nov 14:18:00 14:20:31 21° 291° (WNW) 14:23:01 437.505
O/OREOS (USA 219) 21 Nov 14:21:36 14:25:10 22° 304° (NW) 14:28:44 437.305
YUBILEINY 21 Nov 14:36:26 14:42:11 18° 60° (ENE) 14:47:54 435.215
ITAMSAT 1 21 Nov 14:59:42 15:04:54 66° 258° (WSW) 15:10:07 435.822/435.867
AO-7 21 Nov 15:05:39 15:13:39 52° 258° (WSW) 15:21:43 .
DX 1 21 Nov 15:10:39 15:12:39 13° 299° (WNW) 15:14:39 434.975-435.025
NO-84 21 Nov 15:13:43 15:17:23 67° 321° (NW) 15:21:23 435.350 FM
BEESAT 21 Nov 15:15:02 15:19:46 68° 102° (ESE) 15:24:29 436.000
ITUPSAT 1 21 Nov 15:24:54 15:29:41 83° 103° (ESE) 15:34:26 437.325
DOVE 4 21 Nov 15:30:36 15:35:20 42° 70° (ENE) 15:40:17 437.250
MOZHAYETS 4 21 Nov 15:34:48 15:39:15 54° 287° (WNW) 15:43:42
